Flag for Germany Weather past 2 weeks in Göppingen, Baden-Württemberg, Germany

Now
34 °F

Low clouds.


Feels Like: 25 °F
Forecast: 33 / 45 °F
Wind: 12 mph from West

Location: Stoetten

Current Time: Mar 2, 2015 at 5:52:03 PM

Latest Report: Mar 2, 2015 at 5:00 PM


Visibility: 3 mi

Pressure: 29.91 "Hg

Humidity: 92%

Dew point: 31 °F

Location of GöppingenLocation

Historic Weather in Göppingen — Graph

°F

Göppingen temperature yesterday

Maximum temperature yesterday: 40 °F (at 8:00 PM)
Minimum temperature yesterday: 29 °F (at 3:00 AM)
Average temperature yesterday: 35 °F

Past Weeks' High & Low Weather Summary

 TemperatureHumidityPressure
High45 °F (Feb 20, 3:00 PM)100% (Feb 15, 4:00 PM)30.79 "Hg (Feb 15, 4:00 PM)
Low19 °F (Feb 17, 4:00 AM)36% (Feb 21, 1:00 AM)29.54 "Hg (Feb 21, 1:00 PM)
Average31 °F88%30.07 "Hg
* Reported Feb 15 4:00 PM — Mar 2 4:00 PM, Göppingen, Weather by CustomWeather, © 2015

Note: Actual official high and low records may vary slightly from our data, if they occured in-between our weather recording intervals... More about our weather records

Advertising

Göppingen weather history for previous 24 hours

 ConditionsComfort  
Time TempWeatherWind HumidityBarometerVisibility
4:00 PM
Mon, Mar 2
36 °FOvercast.12 mph79%29.88 "Hg47 mi
3:00 PM36 °FLow clouds.6 mph91%29.85 "Hg16 mi
2:00 PM37 °FLow clouds.9 mph79%29.82 "Hg9 mi
1:00 PM36 °FLow clouds.10 mph91%29.82 "Hg37 mi
12:00 PM35 °FLight rain. Low clouds.10 mph95%29.80 "Hg3 mi
11:00 AM35 °FOvercast.14 mph80%29.79 "Hg47 mi
10:00 AM35 °FOvercast.15 mph85%29.79 "Hg43 mi
9:00 AM35 °FDrizzle. Low clouds.16 mph93%29.77 "Hg3 mi
8:00 AM35 °FLight rain. Overcast.9 mph97%29.73 "Hg5 mi
7:00 AM36 °FLow clouds.13 mph99%29.71 "Hg5 mi
6:00 AM38 °FLight rain. Low clouds.14 mph96%29.68 "Hg19 mi
5:00 AM42 °FLight rain. Overcast.17 mph86%29.64 "Hg13 mi
4:00 AM41 °FOvercast.13 mph88%29.65 "Hg43 mi
3:00 AM39 °FLight rain. Overcast.12 mph92%29.67 "Hg19 mi
2:00 AM40 °FLight rain. Overcast.9 mph86%29.69 "Hg15 mi
1:00 AM40 °FOvercast.9 mph85%29.72 "Hg43 mi
12:00 AM41 °FOvercast.10 mph78%29.74 "Hg43 mi
11:00 PM
Sun, Mar 1
39 °FOvercast.7 mph91%29.77 "Hg28 mi
10:00 PM39 °FOvercast.7 mph95%29.79 "Hg19 mi
9:00 PM38 °FOvercast.8 mph97%29.81 "Hg47 mi
8:00 PM40 °FOvercast.7 mph92%29.81 "Hg47 mi
7:00 PM39 °FOvercast.7 mph92%29.80 "Hg47 mi
6:00 PM39 °FOvercast.6 mph99%29.80 "Hg19 mi
5:00 PM38 °FLow clouds.7 mph97%29.82 "Hg14 mi
Weather by CustomWeather, © 2015

See weather overviewHow to use our weather pages